Location: Unspecified
(0.0000°N, 0.0000°E)
Time: 14:45:45
(UTC+00:00)

Tiangong - Pass Details

Date: 06 October 2024
Orbit: 371 x 377 km, 41.5° (Epoch: 13 October)

Event Time Altitude Azimuth Distance (km) Brightness Sun altitude
Rises 19:30:36 0° 299° (WNW) 2,204 2.5 -25.5°
Reaches altitude 10° 19:32:46 10° 288° (WNW) 1,359 1.5 -26.1°
Enters shadow 19:34:04 20° 272° (W) 922 0.5 -26.4°
